Location: Bydgoszcz
(53.1235°N, 18.0084°E)
Time: 20:32:40
(UTC+02:00)

ISS - Pass Details

Date: 24 April 2026
Orbit: 414 x 424 km, 51.6° (Epoch: 12 May)

Event Time Altitude Azimuth Distance (km) Brightness Sun altitude
Exits shadow 03:58:26 16° 192° (SSW) 1,168 -2.0 -12.3°
Maximum altitude 04:00:09 24° 150° (SSE) 910 -2.2 -12.1°
Drops below altitude 10° 04:02:57 10° 94° (E) 1,506 -0.3 -11.8°
Sets 04:05:18 0° 80° (E) 2,375 1.2 -11.6°
